TUI156 VECC-VQPR

Flight info

Callsign TUI156
Flight time N/A
Altitude 33000
Route AGODA2D AGODA R472 RAJ R598 BOGOP BOGOP1A
Aircraft B738/M-SDE2E3FGHIRWXY/LB1

Departure

Time 2026-05-06 16:46
Airport Netaji Subhash Chandra Bose International Airport (VECC)

Arrival

Time N/A
Airport Paro International Airport (VQPR)
Time Latitude Longitude Altitude Speed Heading
2026-05-06 15:50 22.64457 88.44093 27 ft 0 kts 273°
2026-05-06 16:16 22.64456 88.44099 23 ft 3 kts 273°
2026-05-06 16:16 22.64455 88.44120 25 ft 3 kts 273°
2026-05-06 16:17 22.64453 88.44140 28 ft 3 kts 308°
2026-05-06 16:17 22.64437 88.44149 26 ft 3 kts 14°
2026-05-06 16:17 22.64431 88.44148 27 ft 0 kts 37°
2026-05-06 16:36 22.64433 88.44149 26 ft 1 kts 31°
2026-05-06 16:36 22.64446 88.44155 27 ft 3 kts 22°
2026-05-06 16:36 22.64471 88.44162 23 ft 5 kts 14°
2026-05-06 16:37 22.64509 88.44167 24 ft 6 kts
2026-05-06 16:37 22.64557 88.44172 25 ft 8 kts
2026-05-06 16:37 22.64614 88.44179 25 ft 9 kts 12°
2026-05-06 16:37 22.64640 88.44236 23 ft 9 kts 87°
2026-05-06 16:38 22.64636 88.44312 23 ft 11 kts 92°
2026-05-06 16:38 22.64687 88.44362 23 ft 11 kts 13°
2026-05-06 16:38 22.64769 88.44372 26 ft 12 kts
2026-05-06 16:38 22.64859 88.44381 25 ft 14 kts
2026-05-06 16:39 22.64957 88.44391 24 ft 15 kts
2026-05-06 16:39 22.65062 88.44405 25 ft 16 kts
2026-05-06 16:39 22.65168 88.44420 23 ft 15 kts
2026-05-06 16:39 22.65270 88.44431 26 ft 14 kts
2026-05-06 16:40 22.65367 88.44443 25 ft 14 kts
2026-05-06 16:40 22.65460 88.44453 25 ft 13 kts
2026-05-06 16:40 22.65549 88.44463 25 ft 13 kts
2026-05-06 16:40 22.65597 88.44475 28 ft 0 kts 24°
2026-05-06 16:44 22.65602 88.44477 27 ft 2 kts 24°
2026-05-06 16:44 22.65631 88.44507 28 ft 9 kts 53°
2026-05-06 16:44 22.65640 88.44567 26 ft 9 kts 120°
2026-05-06 16:44 22.65587 88.44586 28 ft 9 kts 183°
2026-05-06 16:45 22.65441 88.44567 26 ft 48 kts 186°
2026-05-06 16:45 22.64896 88.44503 24 ft 110 kts 186°
2026-05-06 16:45 22.63958 88.44398 27 ft 159 kts 183°
2026-05-06 16:45 22.62778 88.44256 374 ft 169 kts 186°
2026-05-06 16:46 22.61767 88.43888 1320 ft 143 kts 209°
2026-05-06 16:46 22.60779 88.43251 1351 ft 198 kts 212°
2026-05-06 16:46 22.59453 88.42343 1120 ft 244 kts 213°
2026-05-06 16:46 22.58103 88.41359 2296 ft 211 kts 215°
2026-05-06 16:47 22.57060 88.40524 3877 ft 169 kts 219°
2026-05-06 16:47 22.56148 88.39703 4599 ft 180 kts 221°
2026-05-06 16:47 22.55125 88.38701 4595 ft 219 kts 224°
2026-05-06 16:47 22.53981 88.37509 4960 ft 230 kts 225°
2026-05-06 16:48 22.52889 88.36291 5804 ft 221 kts 227°
2026-05-06 16:48 22.51911 88.34961 6215 ft 238 kts 247°
2026-05-06 16:48 22.51760 88.33118 6432 ft 263 kts 284°
2026-05-06 16:48 22.52396 88.31214 6960 ft 273 kts 289°
2026-05-06 16:49 22.53249 88.29353 7610 ft 282 kts 310°
2026-05-06 16:49 22.54898 88.28189 8332 ft 290 kts 343°
2026-05-06 16:49 22.56870 88.27827 9092 ft 293 kts 344°
2026-05-06 16:49 22.58637 88.26784 9756 ft 293 kts 315°
2026-05-06 16:50 22.60215 88.25351 10295 ft 306 kts 328°
2026-05-06 16:50 22.62317 88.24575 10459 ft 332 kts 349°
2026-05-06 16:50 22.64680 88.24217 10675 ft 352 kts 351°
2026-05-06 16:50 22.67141 88.23873 11149 ft 360 kts 351°
2026-05-06 16:51 22.69638 88.23510 11795 ft 363 kts 350°
2026-05-06 16:51 22.72153 88.23125 12458 ft 366 kts 349°
2026-05-06 16:51 22.74658 88.22732 13084 ft 370 kts 349°
2026-05-06 16:51 22.77236 88.22470 13687 ft 376 kts 356°
2026-05-06 16:52 22.79872 88.22523 14207 ft 382 kts 360°
2026-05-06 16:52 22.82541 88.22690 14774 ft 385 kts
2026-05-06 16:52 22.85232 88.22878 15367 ft 388 kts
2026-05-06 16:52 22.87948 88.23053 15928 ft 391 kts 360°
2026-05-06 16:53 22.90645 88.23206 16479 ft 394 kts 359°
2026-05-06 16:53 22.93398 88.23344 17031 ft 397 kts 359°
2026-05-06 16:53 22.96172 88.23474 17579 ft 400 kts 359°
2026-05-06 16:53 22.98967 88.23599 18118 ft 403 kts 359°
2026-05-06 16:54 23.01779 88.23722 18572 ft 407 kts 359°
2026-05-06 16:54 23.04620 88.23847 19007 ft 410 kts 358°
2026-05-06 16:54 23.07483 88.23973 19466 ft 413 kts 358°
2026-05-06 16:54 23.10367 88.24100 19945 ft 415 kts 358°
2026-05-06 16:55 23.13234 88.24227 20358 ft 419 kts 358°
2026-05-06 16:55 23.16160 88.24357 20813 ft 421 kts 358°
2026-05-06 16:55 23.19095 88.24487 21251 ft 424 kts 358°
2026-05-06 16:55 23.22055 88.24711 21678 ft 428 kts
2026-05-06 16:56 23.25028 88.25071 22094 ft 432 kts
2026-05-06 16:56 23.28027 88.25487 22504 ft 435 kts
2026-05-06 16:56 23.31035 88.25916 22909 ft 438 kts
2026-05-06 16:56 23.33874 88.26314 23281 ft 440 kts
2026-05-06 16:57 23.36415 88.26661 23582 ft 442 kts
2026-05-06 16:57 23.39477 88.27070 23898 ft 444 kts
2026-05-06 16:57 23.42559 88.27475 24237 ft 446 kts
2026-05-06 16:57 23.45643 88.27876 24609 ft 447 kts
2026-05-06 16:58 23.48699 88.28271 24909 ft 449 kts
2026-05-06 16:58 23.51818 88.28674 25182 ft 453 kts
2026-05-06 16:58 23.54959 88.29080 25462 ft 455 kts
2026-05-06 16:58 23.58117 88.29489 25751 ft 458 kts
2026-05-06 16:59 23.61291 88.29900 26037 ft 460 kts
2026-05-06 16:59 23.64483 88.30315 26314 ft 462 kts
2026-05-06 16:59 23.67693 88.30732 26580 ft 465 kts
2026-05-06 16:59 23.70912 88.31150 26846 ft 467 kts
2026-05-06 17:00 23.74147 88.31571 27134 ft 470 kts
2026-05-06 17:00 23.77407 88.31995 27327 ft 474 kts
2026-05-06 17:00 23.80660 88.32419 27567 ft 476 kts
2026-05-06 17:00 23.84001 88.32854 27856 ft 478 kts
2026-05-06 17:01 23.87269 88.33281 28116 ft 480 kts
2026-05-06 17:01 23.90595 88.33715 28356 ft 482 kts
2026-05-06 17:01 23.93939 88.34152 28592 ft 485 kts
2026-05-06 17:01 23.97296 88.34647 28816 ft 490 kts
2026-05-06 17:02 24.00537 88.35949 28976 ft 505 kts 26°
2026-05-06 17:02 24.03473 88.38084 29276 ft 508 kts 32°
2026-05-06 17:02 24.06352 88.40343 29521 ft 511 kts 33°
2026-05-06 17:02 24.09253 88.42636 29631 ft 515 kts 33°
2026-05-06 17:03 24.12141 88.44893 29796 ft 518 kts 32°
2026-05-06 17:03 24.15088 88.47165 30008 ft 519 kts 32°
2026-05-06 17:03 24.18055 88.49428 30196 ft 520 kts 31°
2026-05-06 17:03 24.21031 88.51689 30417 ft 520 kts 31°
2026-05-06 17:04 24.24013 88.53955 30683 ft 520 kts 31°
2026-05-06 17:04 24.26980 88.56215 30971 ft 519 kts 31°
2026-05-06 17:04 24.29951 88.58463 31234 ft 517 kts 28°
2026-05-06 17:04 24.33145 88.60178 31410 ft 508 kts 12°
2026-05-06 17:05 24.36527 88.60889 31666 ft 496 kts 359°
2026-05-06 17:05 24.39958 88.61155 31996 ft 494 kts 358°
2026-05-06 17:05 24.43395 88.61445 32175 ft 497 kts 359°
2026-05-06 17:05 24.46843 88.61968 32362 ft 503 kts
2026-05-06 17:06 24.50290 88.62704 32624 ft 504 kts
2026-05-06 17:06 24.53721 88.63516 32887 ft 504 kts
2026-05-06 17:06 24.57151 88.64343 32859 ft 506 kts
2026-05-06 17:07 24.64016 88.65957 32866 ft 502 kts
2026-05-06 17:07 24.70800 88.67484 32893 ft 499 kts
2026-05-06 17:08 24.77407 88.68949 32880 ft 498 kts
2026-05-06 17:08 24.84213 88.70459 32875 ft 498 kts
2026-05-06 17:09 24.91006 88.71974 32875 ft 498 kts
2026-05-06 17:09 24.97765 88.73484 32873 ft 499 kts
2026-05-06 17:10 25.04573 88.75007 32877 ft 500 kts
2026-05-06 17:10 25.11400 88.76535 32876 ft 501 kts
2026-05-06 17:11 25.18236 88.78068 32872 ft 502 kts
2026-05-06 17:11 25.25085 88.79588 32874 ft 502 kts
2026-05-06 17:12 25.31944 88.81074 32880 ft 502 kts
2026-05-06 17:12 25.38807 88.82571 32869 ft 502 kts
2026-05-06 17:13 25.44505 88.83829 32872 ft 502 kts
2026-05-06 17:13 25.52476 88.85594 32859 ft 502 kts
2026-05-06 17:14 25.59330 88.87112 32878 ft 502 kts
2026-05-06 17:14 25.65072 88.88386 32898 ft 502 kts
2026-05-06 17:15 25.71916 88.89952 32879 ft 505 kts
2026-05-06 17:15 25.78385 88.93167 32881 ft 520 kts 28°
2026-05-06 17:16 25.83962 88.98390 32882 ft 527 kts 40°
2026-05-06 17:16 25.89215 89.04006 32871 ft 526 kts 40°
2026-05-06 17:17 25.94561 89.09580 32875 ft 525 kts 39°
2026-05-06 17:17 25.99934 89.15101 32884 ft 525 kts 39°
2026-05-06 17:17 26.02615 89.17844 32767 ft 525 kts 38°
2026-05-06 17:18 26.05308 89.20534 32202 ft 526 kts 38°
2026-05-06 17:18 26.08033 89.23238 31588 ft 525 kts 39°
2026-05-06 17:18 26.10773 89.25945 31017 ft 523 kts 38°
2026-05-06 17:18 26.13516 89.28576 30583 ft 518 kts 38°
2026-05-06 17:19 26.16256 89.31167 30093 ft 516 kts 38°
2026-05-06 17:19 26.18987 89.33742 29558 ft 512 kts 38°
2026-05-06 17:19 26.21691 89.36303 29052 ft 508 kts 39°
2026-05-06 17:19 26.24360 89.38845 28522 ft 500 kts 39°
2026-05-06 17:20 26.26968 89.41338 28043 ft 487 kts 39°
2026-05-06 17:20 26.29514 89.43773 27566 ft 476 kts 39°
2026-05-06 17:20 26.31964 89.46118 27112 ft 465 kts 38°
2026-05-06 17:20 26.34515 89.48336 26643 ft 453 kts 30°
2026-05-06 17:21 26.37126 89.50125 26224 ft 441 kts 27°
2026-05-06 17:21 26.39758 89.51829 25788 ft 433 kts 27°
2026-05-06 17:21 26.42339 89.53513 25378 ft 429 kts 27°
2026-05-06 17:21 26.44899 89.55226 24920 ft 429 kts 28°
2026-05-06 17:22 26.47439 89.56951 24470 ft 424 kts 28°
2026-05-06 17:22 26.49933 89.58656 24034 ft 417 kts 28°
2026-05-06 17:22 26.52387 89.60334 23616 ft 410 kts 28°
2026-05-06 17:22 26.54806 89.61987 23142 ft 403 kts 28°
2026-05-06 17:23 26.57184 89.63611 22724 ft 395 kts 28°
2026-05-06 17:23 26.59507 89.65198 22310 ft 388 kts 28°
2026-05-06 17:23 26.61784 89.66754 21909 ft 380 kts 28°
2026-05-06 17:23 26.64019 89.68281 21546 ft 373 kts 28°
2026-05-06 17:24 26.66189 89.69764 21183 ft 368 kts 28°
2026-05-06 17:24 26.68373 89.71257 20826 ft 367 kts 28°
2026-05-06 17:24 26.70565 89.72721 20454 ft 366 kts 22°
2026-05-06 17:24 26.72959 89.73501 20054 ft 355 kts 358°
2026-05-06 17:25 26.75368 89.73294 19740 ft 342 kts 340°
2026-05-06 17:25 26.77550 89.72337 19378 ft 333 kts 327°
2026-05-06 17:25 26.79593 89.71094 18973 ft 335 kts 326°
2026-05-06 17:25 26.81627 89.69838 18796 ft 330 kts 326°
2026-05-06 17:26 26.83632 89.68622 18617 ft 326 kts 327°
2026-05-06 17:26 26.85605 89.67425 18476 ft 318 kts 323°
2026-05-06 17:26 26.87349 89.65988 18366 ft 306 kts 313°
2026-05-06 17:26 26.88808 89.64292 18252 ft 299 kts 308°
2026-05-06 17:27 26.90180 89.62594 18125 ft 297 kts 308°
2026-05-06 17:27 26.91564 89.60884 17994 ft 296 kts 308°
2026-05-06 17:27 26.92944 89.59189 17837 ft 293 kts 308°
2026-05-06 17:27 26.94301 89.57533 17785 ft 287 kts 308°
2026-05-06 17:28 26.95683 89.55882 17638 ft 294 kts 312°
2026-05-06 17:28 26.97414 89.54589 17506 ft 307 kts 333°
2026-05-06 17:28 26.99512 89.54032 17417 ft 312 kts 349°
2026-05-06 17:28 27.01668 89.53809 17225 ft 312 kts 351°
2026-05-06 17:29 27.03852 89.53600 16894 ft 314 kts 351°
2026-05-06 17:29 27.06017 89.53370 16587 ft 311 kts 351°
2026-05-06 17:29 27.08189 89.53124 16129 ft 315 kts 350°
2026-05-06 17:29 27.10357 89.52882 15838 ft 311 kts 353°
2026-05-06 17:30 27.12444 89.53210 15861 ft 297 kts 18°
2026-05-06 17:30 27.14145 89.54332 15888 ft 280 kts 40°
2026-05-06 17:30 27.15415 89.56027 15876 ft 287 kts 60°
2026-05-06 17:30 27.16114 89.58071 15895 ft 274 kts 81°
2026-05-06 17:31 27.16143 89.60143 15862 ft 255 kts 104°
2026-05-06 17:31 27.15585 89.62011 15830 ft 252 kts 123°
2026-05-06 17:31 27.14563 89.63523 15871 ft 241 kts 141°
2026-05-06 17:31 27.13280 89.64672 15867 ft 237 kts 153°
2026-05-06 17:32 27.11803 89.65444 15797 ft 230 kts 171°
2026-05-06 17:32 27.10261 89.65713 15827 ft 222 kts 178°
2026-05-06 17:32 27.08712 89.65903 15809 ft 225 kts 179°
2026-05-06 17:32 27.07158 89.66092 15791 ft 222 kts 179°
2026-05-06 17:33 27.05658 89.66274 15778 ft 210 kts 179°
2026-05-06 17:33 27.04261 89.66441 15773 ft 200 kts 180°
2026-05-06 17:33 27.02847 89.66605 15849 ft 209 kts 180°
2026-05-06 17:33 27.01423 89.66588 15770 ft 198 kts 204°
2026-05-06 17:34 27.00397 89.65744 15796 ft 181 kts 239°
2026-05-06 17:34 27.00150 89.64427 15832 ft 181 kts 278°
2026-05-06 17:34 27.00782 89.63142 15807 ft 201 kts 314°
2026-05-06 17:34 27.02080 89.62423 15379 ft 220 kts 346°
2026-05-06 17:35 27.03585 89.62292 15097 ft 215 kts 352°
2026-05-06 17:35 27.05050 89.62243 14916 ft 209 kts 353°
2026-05-06 17:35 27.06507 89.62203 14949 ft 210 kts 353°
2026-05-06 17:36 27.09430 89.62099 14933 ft 207 kts 345°
2026-05-06 17:36 27.10590 89.61335 14983 ft 191 kts 298°
2026-05-06 17:36 27.11135 89.59979 14963 ft 193 kts 289°
2026-05-06 17:36 27.11784 89.58650 15000 ft 194 kts 299°
2026-05-06 17:37 27.12620 89.57448 15044 ft 198 kts 307°
2026-05-06 17:37 27.13627 89.56358 15020 ft 201 kts 315°
2026-05-06 17:37 27.14741 89.55424 15021 ft 199 kts 320°
2026-05-06 17:37 27.15884 89.54612 14981 ft 194 kts 323°
2026-05-06 17:38 27.17030 89.53880 14806 ft 182 kts 325°
2026-05-06 17:38 27.18119 89.53216 14415 ft 178 kts 327°
2026-05-06 17:38 27.19219 89.52564 13867 ft 179 kts 328°
2026-05-06 17:38 27.20328 89.51915 13309 ft 179 kts 328°
2026-05-06 17:39 27.21451 89.51328 12774 ft 179 kts 340°
2026-05-06 17:39 27.22702 89.51293 12241 ft 182 kts
2026-05-06 17:39 27.23847 89.51716 12118 ft 167 kts 21°
2026-05-06 17:39 27.24964 89.52231 12104 ft 181 kts 19°
2026-05-06 17:40 27.26108 89.52809 11928 ft 177 kts 26°
2026-05-06 17:40 27.27193 89.53450 11498 ft 176 kts 27°
2026-05-06 17:40 27.28286 89.54082 10972 ft 178 kts 24°
2026-05-06 17:40 27.29439 89.54502 10620 ft 172 kts
2026-05-06 17:41 27.30598 89.54312 10541 ft 173 kts 339°
2026-05-06 17:41 27.31660 89.53647 10402 ft 178 kts 321°
2026-05-06 17:41 27.32502 89.52637 10246 ft 177 kts 303°
2026-05-06 17:41 27.32982 89.51365 9967 ft 176 kts 282°
2026-05-06 17:42 27.33038 89.50009 9624 ft 173 kts 263°
2026-05-06 17:42 27.32890 89.48672 9212 ft 172 kts 265°
2026-05-06 17:42 27.33088 89.47373 8853 ft 166 kts 291°
2026-05-06 17:42 27.33746 89.46348 8565 ft 166 kts 326°
2026-05-06 17:43 27.34882 89.46276 8033 ft 178 kts 11°
2026-05-06 17:43 27.36033 89.46064 7804 ft 176 kts 326°
2026-05-06 17:43 27.36974 89.45440 7694 ft 143 kts
2026-05-06 17:43 27.37973 89.45691 7865 ft 133 kts